Capo Mele, Italy

7:33 PM CEST on August 28, 2016 (GMT +0200)
Capo Mele

Weather History for LIMU - February, 2014

Change the Weather History Date:

Tuesday, February 11, 2014

  Actual Average Record
Temperature  
Mean Temperature 50 °F -  
Max Temperature 57 °F 54 °F 64 °F (2001)
Min Temperature 44 °F 44 °F 26 °F (2012)
Degree Days  
Heating Degree Days 14    
Moisture  
Dew Point 43 °F    
Average Humidity 70    
Maximum Humidity 87    
Minimum Humidity 46    
Precipitation  
Precipitation 0.00 in 0.09 in - ()
Sea Level Pressure  
Sea Level Pressure 29.67 in    
Wind  
Wind Speed 7 mph ()    
Max Wind Speed 16 mph    
Max Gust Speed -    
Visibility 9.4 miles    
Events Rain    
Averages and records for this station are not official NWS values.
T = Trace of Precipitation, MM = Missing Value Source: Averaged Metar Reports

Daily Weather History Graph

Daily Weather History Graph

Search for Another Location

Airport or City:

Trip Planner

Search our weather history database for the weather conditions in past years. The results will help you decide how hot, cold, wet, or windy it might be!

Date:

Astronomy

Feb. 11, 2014 Rise Set
Actual Time 7:32 AM CET 5:51 PM CET
Civil Twilight 7:02 AM CET 6:21 PM CET
Nautical Twilight 6:28 AM CET 6:55 PM CET
Astronomical Twilight 5:55 AM CET 7:28 PM CET
Moon 2:54 PM CET (2/11) 5:01 AM CET (2/11)
Length of Visible Light 11h 18m
Length of Day
10h 18m
Waxing Gibbous, 89% of the Moon is Illuminated
Feb 11
Waxing Gibbous
Feb 15
Full
Feb 22
Last Quarter
Mar 1
New
Mar 8
First Quarter

Hourly Weather History & Observations

Time (CET) Temp. Windchill Dew Point Humidity Pressure Visibility Wind Dir Wind Speed Gust Speed Precip Events Conditions
12:00 AM 45 °F - 42 °F 84% 29.58 in 6 mi NW 10.4 mph - - Rain Light Rain
12:55 AM 46.4 °F 41.5 °F 42.8 °F 87% 29.59 in 6.2 mi North 10.4 mph - N/A   Mostly Cloudy
1:00 AM 46 °F - 43 °F 84% 29.62 in 12 mi North 10.4 mph - - Rain Light Rain
1:55 AM 46.4 °F 41.1 °F 42.8 °F 87% 29.59 in 6.2 mi WNW 11.5 mph - N/A   Mostly Cloudy
2:00 AM 46 °F - 43 °F 84% 29.62 in 12 mi WNW 11.5 mph - -   Partly Cloudy
2:55 AM 46.4 °F 41.9 °F 42.8 °F 87% 29.59 in 6.2 mi WNW 9.2 mph - N/A   Overcast
3:00 AM 47 °F - 42 °F 77% 29.63 in 12 mi WNW 9.2 mph - -   Partly Cloudy
3:55 AM 48.2 °F - 42.8 °F 82% 29.59 in 6.2 mi NW 2.3 mph - N/A   Mostly Cloudy
4:00 AM 49 °F - 43 °F 71% 29.63 in 12 mi NW 2.3 mph - -   Mostly Cloudy
4:55 AM 48.2 °F - 42.8 °F 82% 29.62 in 6.2 mi ESE 2.3 mph - N/A   Mostly Cloudy
5:00 AM 48 °F - 42 °F 73% 29.63 in 12 mi ESE 2.3 mph - -   Mostly Cloudy
5:55 AM 48.2 °F - 42.8 °F 82% 29.62 in 6.2 mi NNE 9.2 mph - N/A   Mostly Cloudy
6:00 AM 49 °F - 43 °F 73% 29.64 in 12 mi NNE 9.2 mph - -   Mostly Cloudy
6:55 AM 48.2 °F - 41.0 °F 76% 29.65 in 6.2 mi North 6.9 mph - N/A   Scattered Clouds
7:00 AM 48 °F - 42 °F 72% 29.67 in 12 mi North 6.9 mph - -   Partly Cloudy
7:55 AM 46.4 °F 44.3 °F 37.4 °F 71% 29.68 in 6.2 mi NE 4.6 mph - N/A   Partly Cloudy
8:00 AM 47 °F - 38 °F 60% 29.70 in 12 mi NE 4.6 mph - -   Scattered Clouds
8:55 AM 50.0 °F - 35.6 °F 58% 29.68 in - WSW 2.3 mph - N/A   Clear
9:00 AM 50 °F - 35 °F 46% 29.70 in 12 mi WSW 2.3 mph - -   Clear
9:55 AM 51.8 °F - 39.2 °F 62% 29.68 in - SSW 4.6 mph - N/A   Clear
10:00 AM 52 °F - 40 °F 53% 29.71 in 12 mi SSW 4.6 mph - -   Clear
10:55 AM 53.6 °F - 39.2 °F 58% 29.68 in - South 6.9 mph - N/A   Clear
11:00 AM 53 °F - 40 °F 50% 29.71 in 31 mi South 6.9 mph - -   Clear
11:55 AM 53.6 °F - 39.2 °F 58% 29.71 in - South 8.1 mph - N/A   Clear
12:00 PM 54 °F - 40 °F 47% 29.71 in 31 mi South 8.1 mph - -  
12:55 PM 55.4 °F - 42.8 °F 63% 29.71 in - SSW 9.2 mph - N/A   Clear
1:00 PM 55 °F - 43 °F 54% 29.71 in 31 mi SSW 9.2 mph - -  
1:55 PM 55.4 °F - 46.4 °F 72% 29.68 in - South 12.7 mph - N/A   Clear
2:00 PM 55 °F - 47 °F 66% 29.69 in 31 mi South 12.7 mph - -  
2:55 PM 55.4 °F - 44.6 °F 67% 29.68 in 6.2 mi SSW 16.1 mph - N/A   Partly Cloudy
3:00 PM 56 °F - 45 °F 57% 29.68 in 31 mi SSW 16.1 mph - -   Scattered Clouds
3:55 PM 55.4 °F - 46.4 °F 72% 29.68 in 6.2 mi SW 16.1 mph - N/A   Partly Cloudy
4:00 PM 56 °F - 47 °F 64% 29.69 in 31 mi SW 16.1 mph - -   Scattered Clouds
4:55 PM 55.4 °F - 46.4 °F 72% 29.68 in 6.2 mi SW 10.4 mph - N/A   Partly Cloudy
5:00 PM 55 °F - 47 °F 65% 29.69 in 31 mi SW 10.4 mph - -   Scattered Clouds
5:55 PM 53.6 °F - 48.2 °F 82% 29.68 in - SW 5.8 mph - N/A   Clear
6:00 PM 54 °F - 48 °F 74% 29.69 in 31 mi SW 5.8 mph - -  
6:55 PM 51.8 °F - 46.4 °F 82% 29.68 in - NNW 4.6 mph - N/A   Clear
7:00 PM 52 °F - 46 °F 74% 29.70 in 12 mi NNW 4.6 mph - -  
7:55 PM 50.0 °F - 44.6 °F 82% 29.68 in - SW 3.5 mph - N/A   Clear
8:00 PM 51 °F - 46 °F 75% 29.71 in 12 mi SW 3.5 mph - -  
8:55 PM 51.8 °F - 41.0 °F 67% 29.68 in - WSW 5.8 mph - N/A   Clear
9:00 PM 51 °F - 42 °F 61% 29.71 in 12 mi WSW 5.8 mph - -   Clear
9:55 PM 51.8 °F - 42.8 °F 71% 29.68 in - NW 1.2 mph - N/A   Clear
10:00 PM 51 °F - 44 °F 68% 29.72 in 12 mi NW 1.2 mph - -   Clear
10:55 PM 50.0 °F - 42.8 °F 76% 29.71 in - West 3.5 mph - N/A   Clear
11:00 PM 50 °F - 43 °F 70% 29.72 in 12 mi West 3.5 mph - -   Clear
11:55 PM 50.0 °F - 44.6 °F 82% 29.71 in - NNE 8.1 mph - N/A   Clear